Hourly Data Report for April 16, 2016

All times are specified in Local Standard Time (LST). Add 1 hour to adjust for Daylight Saving Time where and when it is observed.

EMERSON AUTO
MANITOBA

49°00'00.000" N
97°14'15.000" W
242.00 m
5020881
71560
WEX

Download Data

Hourly Data (April 2016)
Hourly Data Report for April 16, 2016
Temp Definition
°C
Dew Point Temp Definition
°C
Rel Hum Definition
%
Wind Dir Definition
10's deg

Wind Spd Definition
km/h
Visibility Definition
km
Stn Press Definition
kPa
Hmdx Definition


Wind Chill Definition


Weather Definition


TIME
00:00 3.1 2.8 98 36 33   98.78     LegendNANA
01:00 3.0 2.8 99 35 30   98.88     LegendNANA
02:00 2.9 2.9 100 36 28   98.89     LegendNANA
03:00 2.8 2.8 100 36 23   98.96     LegendNANA
04:00 2.6 2.6 100 36 27   99.00     LegendNANA
05:00 2.5 2.5 100 36 24   99.06     LegendNANA
06:00 2.3 2.3 100 36 26   99.08     LegendNANA
07:00 2.3 2.3 100 36 25   99.15     LegendNANA
08:00 2.1 2.1 100 36 30   99.19     LegendNANA
09:00 2.2 2.2 100 36 28   99.20     LegendNANA
10:00 2.8 2.8 100 3 25   99.25     LegendNANA
11:00 3.5 3.5 100 2 22   99.27     LegendNANA
12:00 4.3 4.3 100 2 19   99.29     LegendNANA
13:00 4.7 4.2 97 3 24   99.29     LegendNANA
14:00 5.0 4.6 97 3 25   99.29     LegendNANA
15:00 5.2 4.7 97 3 25   99.28     LegendNANA
16:00 5.5 4.9 96 3 20   99.24     LegendNANA
17:00 5.2 4.6 96 36 23   99.31     LegendNANA
18:00 4.6 4.6 100 36 23   99.29     LegendNANA
19:00 4.1 4.1 100 3 24   99.32     LegendNANA
20:00 3.9 3.9 100 2 17   99.35     LegendNANA
21:00 3.8 3.8 100 2 19   99.36     LegendNANA
22:00 3.5 3.5 100 1 16   99.37     LegendNANA
23:00 3.4 3.4 100 36 15   99.36     LegendNANA

Notes on Data Quality.

Legend

  • E = Estimated
  • M = Missing
  • NA = Not Available
  • ‡ = Partner data that is not subject to review by the National Climate Archives
Date modified: